Data Logger: 190363_Armas,,,,,,
Data Logger File:  190363_Armas_2020-08-18_19.csv,,,,,,
Sampling Feature UUID: 41cabbac-231e-4f1f-be09-e549f1163861,,,,,,
Sensor Name:,EnviroDIY Mayfly,EnviroDIY Mayfly,MaximDS3231,DecagonCTD,DecagonCTD,DecagonCTD
Variable Name:,freeSRAM,batteryVoltage,temperatureDatalogger,specificConductance,temperature,waterDepth
Result Unit:,Bit,volt,degreeCelsius,microsiemenPerCentimeter,degreeCelsius,millimeter
Result UUID:,9f989b6f-6416-4c73-afa4-e519e3c74632,45282d5a-0265-4e79-8c1e-0fb3ded481ba,43270b26-8c4b-4692-9122-bfc02f86e588,a1489a14-95a6-486f-9dcd-c16ce990b2fe,2975694c-4965-4691-a69a-da9c31a6a13d,f6fa11f2-1d3c-4f7f-8d12-6974a247b0c9
Date and Time in UTC-5,FreeRam,Battery,BoardTemp,CTDcond,CTDtemp,CTDdepth
2020-08-18 07:30:00,13494,4.154,10.5,287.7,14.6,369.3
2020-08-18 08:00:00,13494,4.139,12.5,286.5,14.5,368.3
2020-08-18 08:30:00,13494,4.139,14.25,289,14.4,367.8
2020-08-18 09:00:00,13494,4.139,16.75,287.5,14.4,366.7
2020-08-18 09:30:00,13494,4.185,27.5,287.3,14.5,368.7
2020-08-18 10:00:00,13494,4.185,34,288.3,14.6,367.7
2020-08-18 10:30:00,13494,4.169,32.75,286,14.7,368
2020-08-18 11:00:00,13494,4.185,35.25,288,14.9,367.5
2020-08-18 11:30:00,13494,4.169,33.75,285.7,15.1,368
2020-08-18 12:00:00,13494,4.169,30,286.3,15.2,366.5
2020-08-18 12:30:00,13494,4.154,28.75,285,15.4,366.2
2020-08-18 13:00:00,13494,4.154,28,285.8,15.6,365.5
2020-08-18 13:30:00,13494,4.154,27.25,285,15.8,365.8
2020-08-18 14:00:00,13494,4.139,26.25,285.8,15.8,364.8
2020-08-18 14:30:00,13494,4.139,25.75,284.8,16.1,363.5
2020-08-18 15:00:00,13494,4.139,25.5,287,16.2,363.8
2020-08-18 15:30:00,13494,4.124,24.75,286.3,16.3,363.2
2020-08-18 16:00:00,13494,4.124,24.25,287,16.4,363.3
2020-08-18 16:30:00,13494,4.124,23.75,285.5,16.4,363
2020-08-18 17:00:00,13494,4.124,23,287.3,16.4,363.8
2020-08-18 17:30:00,13494,4.109,22.5,287.5,16.4,362.7
2020-08-18 18:00:00,13494,4.109,22,287.5,16.3,362.3
2020-08-18 18:30:00,13494,4.109,21.5,287.5,16.2,362
2020-08-18 19:00:00,13494,4.094,20.75,287,16.1,361
2020-08-18 19:30:00,13494,4.094,19.5,287.5,16,362
2020-08-18 20:00:00,13494,4.094,18.25,287.3,15.9,360.8
2020-08-18 20:30:00,13494,4.094,17,288,15.8,361.3
2020-08-18 21:00:00,13494,4.094,15.75,288.5,15.72,359.8
2020-08-18 21:30:00,13494,4.078,15,288.7,15.6,360.8
2020-08-18 22:00:00,13494,4.078,14.25,288.8,15.5,362
2020-08-18 22:30:00,13494,4.078,13.75,289.5,15.4,361
2020-08-18 23:00:00,13494,4.078,13,288.7,15.23,361
2020-08-18 23:30:00,13494,4.063,12.75,289,15.1,362
2020-08-19 00:00:00,13494,4.063,12.5,289.5,15,361.5
2020-08-19 00:30:00,13494,4.063,12,289,14.9,361.2
2020-08-19 01:00:00,13494,4.063,11.5,291.2,14.7,360.8
2020-08-19 01:30:00,13494,4.063,12,290.5,14.6,361.5
2020-08-19 02:00:00,13494,4.048,12,289.8,14.5,361.8
2020-08-19 02:30:00,13494,4.048,11.75,291.3,14.4,361
2020-08-19 03:00:00,13494,4.048,11.25,291,14.3,361.5
2020-08-19 03:30:00,13494,4.048,11,288.7,14.2,362
2020-08-19 04:00:00,13494,4.048,10.75,289.5,14.1,362.2
2020-08-19 04:30:00,13494,4.033,10.25,288.2,13.95,362.3
2020-08-19 05:00:00,13494,4.033,10,291.2,13.82,362
2020-08-19 05:30:00,13494,4.033,9.75,287.8,13.7,362.3
2020-08-19 06:00:00,13494,4.033,9.75,289.2,13.6,363.2
2020-08-19 06:30:00,13494,4.033,9.5,288.3,13.5,362
2020-08-19 07:00:00,13494,4.033,9.75,288.5,13.4,362.3
2020-08-19 07:30:00,13494,4.033,10.5,287.8,13.3,363.3
2020-08-19 08:00:00,13494,4.033,11.5,288.3,13.2,363.8
2020-08-19 08:30:00,13494,4.033,13.25,287.7,13.2,362.8
2020-08-19 09:00:00,13494,4.033,16,290,13.2,364
2020-08-19 09:30:00,13494,4.124,22,289.2,13.27,362
2020-08-19 10:00:00,13494,4.124,37.25,288,13.4,363
2020-08-19 10:30:00,13494,4.139,42.25,286.7,13.6,361.3
2020-08-19 11:00:00,13494,4.169,43.5,289,13.8,361.2
2020-08-19 11:30:00,13494,4.169,37.75,288,14.05,361.8
2020-08-19 12:00:00,13494,4.169,31.75,288.2,14.3,361.7
2020-08-19 12:30:00,13494,4.169,29.5,289,14.6,361
2020-08-19 13:00:00,13494,4.169,27.25,288.3,14.8,361.2
2020-08-19 13:30:00,13494,4.169,26.5,288.2,15,360.7
2020-08-19 14:00:00,13494,4.169,26.25,288.3,15.02,359
2020-08-19 14:30:00,13494,4.169,26.25,287.5,15.2,361
2020-08-19 15:00:00,13494,4.169,25.75,288.8,15.3,360.2
2020-08-19 15:30:00,13494,4.169,26,289.5,15.4,359.7
2020-08-19 16:00:00,13494,4.169,26,290,15.5,360.5
2020-08-19 16:30:00,13494,4.169,25.75,288,15.6,359
2020-08-19 17:00:00,13494,4.169,25.25,290,15.6,359
2020-08-19 17:30:00,13494,4.169,24.25,287.8,15.6,358
2020-08-19 18:00:00,13494,4.169,23.5,289.5,15.52,358.5
2020-08-19 18:30:00,13494,4.169,22.5,289.2,15.5,358.2
2020-08-19 19:00:00,13494,4.169,21.5,287.7,15.5,358.2
2020-08-19 19:30:00,13494,4.169,20.25,289.3,15.4,359.2
2020-08-19 20:00:00,13494,4.169,19,290.5,15.3,358
2020-08-19 20:30:00,13494,4.169,18.25,289,15.2,357.7
2020-08-19 21:00:00,13494,4.169,17.25,288.3,15.2,358
2020-08-19 21:30:00,13494,4.169,16.75,289.2,15.1,357.2
2020-08-19 22:00:00,13494,4.154,16,289.7,15.02,357.3
2020-08-19 22:30:00,13494,4.154,15.5,290,15,356.5
2020-08-19 23:00:00,13494,4.154,15,290.7,14.9,355.7
2020-08-19 23:30:00,13494,4.154,15,291.2,14.8,358.3
2020-08-20 00:00:00,13494,4.154,14.75,289.8,14.7,357.3
2020-08-20 00:30:00,13494,4.154,14.75,290.2,14.6,356.7
2020-08-20 01:00:00,13494,4.154,15,290.7,14.5,356.2
2020-08-20 01:30:00,13494,4.154,15.25,289.7,14.48,356.5
2020-08-20 02:00:00,13494,4.154,15.25,290,14.4,358
2020-08-20 02:30:00,13494,4.154,15.25,290.8,14.4,356.7
2020-08-20 03:00:00,13494,4.154,15.25,291.3,14.37,356.8
2020-08-20 03:30:00,13494,4.154,15.25,291.8,14.3,356.8
2020-08-20 04:00:00,13494,4.154,15,290.7,14.3,358.2
2020-08-20 04:30:00,13494,4.154,15,292.8,14.2,357.5
2020-08-20 05:00:00,13494,4.154,15,292.5,14.2,357.8
2020-08-20 05:30:00,13494,4.154,15,291.7,14.12,358
2020-08-20 06:00:00,13494,4.154,15,289.7,14.1,359.2
2020-08-20 06:30:00,13494,4.154,15.5,291.2,14.1,358.3
2020-08-20 07:00:00,13494,4.154,16,291.5,14,358.5
2020-08-20 07:30:00,13494,4.154,17,289.5,14,358.3
2020-08-20 08:00:00,13494,4.154,18.25,291.3,14,356.8
2020-08-20 08:30:00,13494,4.154,19.75,289.5,14,358.2
2020-08-20 09:00:00,13494,4.154,20.75,288,14.1,358.2
